This demonstration page uses our WeatherBlox Daily Observations layout. Learn more.

Left ArrowRight Arrow

36.19886, -115.1175

Hourly Observations for August 13, 2021

Temp ( °F °C ) Dew Point ( °F °C ) Humidity (%) Winds ( mph kmh ) Pressure ( in mb ) Visibility ( mi km ) Precip ( " mm )
12:53 am 00:53 Clear with Smoke 91 32.8 57 13.9 32 32 E 9 15 29.90 1013 10 16 0.00 0.00
1:53 am 01:53 Clear with Smoke 90 32.2 59 15 35 35 E 6 9 29.89 1012 10 16 0.00 0.00
2:53 am 02:53 Clear with Smoke 87 30.6 62 16.7 43 43 NNE 6 9 29.90 1013 10 16 0.00 0.00
3:53 am 03:53 Clear with Smoke 87 30.6 62 16.7 43 43 NNW 5 7 29.90 1013 10 16 0.00 0.00
4:53 am 04:53 Clear with Smoke 87 30.6 63 17.2 45 45 NE 6 9 29.91 1013 10 16 0.00 0.00
5:53 am 05:53 Clear with Smoke 86 30 61 16.1 43 43 ENE 6 9 29.93 1014 10 16 0.00 0.00
6:53 am 06:53 Sunny with Smoke 86 30 61 16.1 43 43 N 3 6 29.96 1015 10 16 0.00 0.00
7:53 am 07:53 Sunny with Smoke 87 30.6 63 17.2 45 45 NE 7 11 29.98 1015 10 16 0.00 0.00
8:53 am 08:53 Sunny with Smoke 88 31.1 64 17.8 45 45 NE 8 13 29.99 1016 10 16 0.00 0.00
9:53 am 09:53 Sunny with Smoke 91 32.8 63 17.2 39 39 Calm 29.99 1016 N/A 0.00 0.00
10:53 am 10:53 Sunny 94 34.4 62 16.7 35 35 undefined N/A 29.98 1015 10 16 0.00 0.00
11:53 am 11:53 Sunny 95 35 60 15.6 31 31 SE 7 11 29.98 1015 10 16 0.00 0.00
12:53 pm 12:53 Sunny 99 37.2 61 16.1 29 29 VRB 6 9 29.97 1015 10 16 0.00 0.00
1:53 pm 13:53 Sunny 100 37.8 62 16.7 29 29 SE 8 13 29.96 1015 10 16 0.00 0.00
2:53 pm 14:53 Sunny 102 38.9 60 15.6 25 25 Calm 29.93 1014 10 16 0.00 0.00
3:53 pm 15:53 Sunny 102 38.9 58 14.4 23 23 NE 5 7 29.91 1013 10 16 0.00 0.00
4:53 pm 16:53 Sunny 101 38.3 59 15 25 25 SSE 12 19 29.91 1013 10 16 0.00 0.00
5:53 pm 17:53 Sunny 99 37.2 56 13.3 24 24 SW 10 17 29.90 1013 10 16 0.00 0.00
6:53 pm 18:53 Sunny 99 37.2 57 13.9 25 25 SE 6 9 29.90 1013 10 16 0.00 0.00
7:53 pm 19:53 Clear 97 36.1 54 12.2 24 24 SSE 8 13 29.92 1013 10 16 0.00 0.00
8:53 pm 20:53 Clear 95 35 55 12.8 26 26 SE 6 9 29.95 1014 10 16 0.00 0.00
9:53 pm 21:53 Clear 95 35 54 12.2 25 25 SSE 6 9 29.97 1015 10 16 0.00 0.00
10:53 pm 22:53 Clear 93 33.9 57 13.9 30 30 E 3 6 29.98 1015 10 16 0.00 0.00
11:53 pm 23:53 Clear 92 33.3 56 13.3 30 30 S 3 6 29.98 1015 10 16 0.00 0.00

Powered by AerisWeather